User: anonymous   Login
Location: Newark
(46.7000°N, 60.6000°W)
Time: 14:30:29
(UTC+00:00)
Language:

Transit 4A - Orbit

View from above orbital plane
View from above orbital plane
View from above satellite
View from above satellite

Ground track
Ground track

The orbit data is extracted from the following two-line orbital elements,

1   116U 61015A   20303.92440182 -.00000082 +00000-0 -40504-5 0  9999
2   116 066.8100 239.4807 0082467 274.1161 085.0496 13.91777381010542
Epoch (UTC): 29 October 2020 22:11:08
Eccentricity: 0.0082467
inclination: 66.8100°
perigee height: 862 km
apogee height: 982 km
right ascension of ascending node: 239.4807°
argument of perigee: 274.1161°
revolutions per day: 13.91777381
mean anomaly at epoch: 85.0496°
orbit number at epoch: 1054

The dashed part of the orbit path shows where the satellite is in the earth's shadow,  

DLR